Time,TemperatureF,DewpointF,PressureIn,WindDirection,WindDirectionDegrees,WindSpeedMPH,WindSpeedGustMPH,Humidity,HourlyPrecipIn,Conditions,Clouds,dailyrainin,SoftwareType,DateUTC
2013-04-12 00:00:00,51.8,49.0,29.71,ESE,118,12.0,17.0,90,0.00,RA,RA,0.00,WeatherDisplay:10.37,2013-04-12 04:00:00,
2013-04-12 00:05:00,51.8,49.0,29.70,ESE,112,11.1,15.0,90,0.00,RA,,0.00,WeatherDisplay:10.37,2013-04-12 04:05:00,
2013-04-12 00:09:00,51.8,48.7,29.70,ESE,112,9.9,13.8,89,0.00,RA,,0.00,WeatherDisplay:10.37,2013-04-12 04:09:00,
2013-04-12 00:14:00,51.6,48.5,29.70,ESE,112,12.9,12.9,89,0.00,CLR,,0.00,WeatherDisplay:10.37,2013-04-12 04:14:00,
2013-04-12 00:17:00,51.4,48.3,29.70,SSE,158,8.7,12.7,89,0.00,CLR,,0.00,WeatherDisplay:10.37,2013-04-12 04:17:00,
2013-04-12 00:22:00,51.4,48.3,29.70,East,90,9.6,13.8,89,0.00,CLR,,0.00,WeatherDisplay:10.37,2013-04-12 04:22:00,
2013-04-12 00:27:00,51.4,48.3,29.69,ESE,112,9.0,10.4,89,0.00,CLR,,0.00,WeatherDisplay:10.37,2013-04-12 04:27:00,
2013-04-12 00:32:00,51.4,48.3,29.69,ESE,112,7.3,11.5,89,0.00,CLR,,0.00,WeatherDisplay:10.37,2013-04-12 04:32:00,
2013-04-12 00:37:00,51.3,48.1,29.69,ESE,112,11.1,11.5,89,0.00,CLR,,0.00,WeatherDisplay:10.37,2013-04-12 04:37:00,
2013-04-12 00:42:00,51.1,48.0,29.69,East,90,11.1,11.1,89,0.00,CLR,,0.00,WeatherDisplay:10.37,2013-04-12 04:42:00,
2013-04-12 00:47:00,51.1,48.2,29.69,SSE,158,10.8,12.7,90,0.00,CLR,,0.00,WeatherDisplay:10.37,2013-04-12 04:47:00,
2013-04-12 00:52:00,51.1,48.2,29.69,ESE,112,9.9,12.7,90,0.00,CLR,,0.00,WeatherDisplay:10.37,2013-04-12 04:52:00,
2013-04-12 00:57:00,51.1,48.2,29.68,SW,225,11.4,11.4,90,0.00,CLR,,0.00,WeatherDisplay:10.37,2013-04-12 04:57:00,
2013-04-12 01:02:00,51.1,48.2,29.68,ESE,112,10.8,10.8,90,0.00,CLR,,0.00,WeatherDisplay:10.37,2013-04-12 05:02:00,
2013-04-12 01:07:00,51.3,48.4,29.68,ESE,112,13.0,13.0,90,0.00,CLR,,0.00,WeatherDisplay:10.37,2013-04-12 05:07:00,
2013-04-12 01:12:00,51.3,48.4,29.68,ESE,112,9.0,11.5,90,0.00,CLR,,0.00,WeatherDisplay:10.37,2013-04-12 05:12:00,
2013-04-12 01:17:00,51.4,48.6,29.67,SE,135,8.7,11.5,90,0.00,CLR,,0.00,WeatherDisplay:10.37,2013-04-12 05:17:00,
2013-04-12 01:23:00,51.4,48.6,29.67,ESE,112,7.0,11.5,90,0.00,CLR,,0.00,WeatherDisplay:10.37,2013-04-12 05:23:00,
2013-04-12 01:28:00,51.6,48.8,29.67,SSE,158,11.4,13.8,90,0.00,CLR,,0.00,WeatherDisplay:10.37,2013-04-12 05:28:00,
2013-04-12 01:33:00,51.8,49.5,29.67,South,180,6.4,13.8,92,0.00,CLR,,0.00,WeatherDisplay:10.37,2013-04-12 05:33:00,
2013-04-12 01:38:00,52.0,49.4,29.67,SE,135,20.9,20.9,91,0.00,CLR,,0.00,WeatherDisplay:10.37,2013-04-12 05:38:00,
2013-04-12 01:43:00,52.2,49.9,29.67,SE,135,12.9,15.0,92,0.00,CLR,,0.00,WeatherDisplay:10.37,2013-04-12 05:43:00,
2013-04-12 01:48:00,52.3,50.1,29.66,SW,225,11.4,11.4,92,0.00,CLR,,0.00,WeatherDisplay:10.37,2013-04-12 05:48:00,
2013-04-12 01:53:00,52.3,50.1,29.66,SSE,158,7.8,7.8,92,0.00,CLR,,0.00,WeatherDisplay:10.37,2013-04-12 05:53:00,
2013-04-12 01:58:00,52.3,49.8,29.66,ESE,112,6.1,6.1,91,0.00,CLR,,0.00,WeatherDisplay:10.37,2013-04-12 05:58:00,
2013-04-12 02:03:00,52.3,49.8,29.66,ESE,112,11.1,12.7,91,0.00,CLR,,0.00,WeatherDisplay:10.37,2013-04-12 06:03:00,
2013-04-12 02:08:00,52.3,50.1,29.66,SE,135,6.7,15.0,92,0.00,CLR,,0.00,WeatherDisplay:10.37,2013-04-12 06:08:00,
2013-04-12 02:13:00,52.3,49.8,29.66,SSE,158,12.9,12.9,91,0.00,CLR,,0.00,WeatherDisplay:10.37,2013-04-12 06:13:00,
2013-04-12 02:18:00,52.3,50.1,29.66,ESE,112,13.6,16.1,92,0.00,CLR,,0.00,WeatherDisplay:10.37,2013-04-12 06:18:00,
2013-04-12 02:23:00,52.2,49.9,29.65,SE,135,9.3,10.4,92,0.00,CLR,,0.00,WeatherDisplay:10.37,2013-04-12 06:23:00,
2013-04-12 02:28:00,52.3,50.1,29.65,SE,135,14.2,14.2,92,0.00,CLR,,0.00,WeatherDisplay:10.37,2013-04-12 06:28:00,
2013-04-12 02:33:00,52.3,50.1,29.65,SE,135,7.6,11.5,92,0.00,CLR,,0.00,WeatherDisplay:10.37,2013-04-12 06:33:00,
2013-04-12 02:38:00,52.3,50.1,29.65,ESE,112,15.4,15.4,92,0.00,CLR,,0.00,WeatherDisplay:10.37,2013-04-12 06:38:00,
2013-04-12 02:43:00,52.5,50.3,29.65,SSE,158,12.6,16.1,92,0.00,CLR,,0.00,WeatherDisplay:10.37,2013-04-12 06:43:00,
2013-04-12 02:48:00,52.5,50.3,29.65,SE,135,12.0,20.7,92,0.00,CLR,,0.00,WeatherDisplay:10.37,2013-04-12 06:48:00,
2013-04-12 02:53:00,52.5,50.3,29.64,South,180,21.2,21.2,92,0.00,CLR,,0.00,WeatherDisplay:10.37,2013-04-12 06:53:00,
2013-04-12 02:58:00,52.7,50.4,29.64,SE,135,16.3,16.3,92,0.00,CLR,,0.00,WeatherDisplay:10.37,2013-04-12 06:58:00,
2013-04-12 03:03:00,52.7,50.4,29.64,SE,135,16.6,19.6,92,0.00,CLR,,0.00,WeatherDisplay:10.37,2013-04-12 07:03:00,
2013-04-12 03:08:00,52.7,50.4,29.64,SE,135,12.3,13.8,92,0.00,CLR,,0.00,WeatherDisplay:10.37,2013-04-12 07:08:00,
2013-04-12 03:13:00,52.7,50.4,29.64,SE,135,14.5,16.1,92,0.00,CLR,,0.00,WeatherDisplay:10.37,2013-04-12 07:13:00,
2013-04-12 03:18:00,52.7,50.4,29.64,SSE,158,19.4,19.4,92,0.00,CLR,,0.00,WeatherDisplay:10.37,2013-04-12 07:18:00,
2013-04-12 03:23:00,52.7,50.4,29.64,ESE,112,13.9,19.6,92,0.00,CLR,,0.00,WeatherDisplay:10.37,2013-04-12 07:23:00,
2013-04-12 03:28:00,52.7,50.4,29.64,SSW,202,10.2,16.1,92,0.00,CLR,,0.00,WeatherDisplay:10.37,2013-04-12 07:28:00,
2013-04-12 03:33:00,52.7,50.4,29.64,SE,135,13.6,15.0,92,0.00,CLR,,0.00,WeatherDisplay:10.37,2013-04-12 07:33:00,
2013-04-12 03:38:00,52.7,50.4,29.64,SE,135,18.5,18.5,92,0.00,CLR,,0.00,WeatherDisplay:10.37,2013-04-12 07:38:00,
2013-04-12 03:43:00,52.7,50.4,29.64,SSE,158,18.2,18.2,92,0.00,CLR,,0.00,WeatherDisplay:10.37,2013-04-12 07:43:00,
2013-04-12 03:48:00,52.7,50.4,29.64,SSE,158,19.1,19.1,92,0.00,CLR,,0.00,WeatherDisplay:10.37,2013-04-12 07:48:00,
2013-04-12 03:53:00,52.5,50.3,29.64,ESE,112,8.1,16.1,92,0.01,RA,,0.01,WeatherDisplay:10.37,2013-04-12 07:53:00,
2013-04-12 03:58:00,52.5,50.3,29.64,SSE,158,11.1,17.3,92,0.01,RA,,0.02,WeatherDisplay:10.37,2013-04-12 07:58:00,
2013-04-12 04:03:00,52.5,50.3,29.64,SSE,158,13.6,17.3,92,0.02,RA,,0.02,WeatherDisplay:10.37,2013-04-12 08:03:00,
2013-04-12 04:08:00,52.5,50.3,29.64,SE,135,18.5,18.5,92,0.02,RA,,0.02,WeatherDisplay:10.37,2013-04-12 08:08:00,
2013-04-12 04:13:00,52.7,50.4,29.64,SE,135,14.8,17.3,92,0.03,RA,,0.03,WeatherDisplay:10.37,2013-04-12 08:13:00,
2013-04-12 04:19:00,52.5,50.3,29.61,ESE,112,13.6,13.6,92,0.03,RA,,0.03,WeatherDisplay:10.37,2013-04-12 08:19:00,
2013-04-12 04:24:00,52.3,50.1,29.60,SE,135,9.9,11.5,92,0.03,,,0.03,WeatherDisplay:10.37,2013-04-12 08:24:00,
2013-04-12 04:29:00,52.2,49.9,29.61,ESE,112,12.9,12.9,92,0.03,CLR,,0.03,WeatherDisplay:10.37,2013-04-12 08:29:00,
2013-04-12 04:34:00,52.0,49.7,29.61,SE,135,9.0,12.7,92,0.03,CLR,,0.03,WeatherDisplay:10.37,2013-04-12 08:34:00,
2013-04-12 04:39:00,52.0,49.7,29.62,SSE,158,7.0,11.5,92,0.03,CLR,,0.03,WeatherDisplay:10.37,2013-04-12 08:39:00,
2013-04-12 04:44:00,52.0,49.7,29.62,SSE,158,16.3,16.3,92,0.03,CLR,,0.03,WeatherDisplay:10.37,2013-04-12 08:44:00,
2013-04-12 04:49:00,51.8,49.5,29.63,ESE,112,11.4,12.7,92,0.03,CLR,,0.03,WeatherDisplay:10.37,2013-04-12 08:49:00,
2013-04-12 04:54:00,51.6,49.1,29.63,ESE,112,13.6,13.6,91,0.03,RA,,0.04,WeatherDisplay:10.37,2013-04-12 08:54:00,
2013-04-12 04:59:00,51.4,49.2,29.61,ESE,112,9.9,10.4,92,0.03,RA,,0.05,WeatherDisplay:10.37,2013-04-12 08:59:00,
2013-04-12 05:04:00,51.3,49.0,29.60,SSE,158,9.9,10.4,92,0.04,RA,,0.06,WeatherDisplay:10.37,2013-04-12 09:04:00,
2013-04-12 05:10:00,51.3,49.0,29.60,SE,131,12.0,15.0,92,0.04,RA,RA,0.06,WeatherDisplay:10.37,2013-04-12 09:10:00,
2013-04-12 05:15:00,51.1,48.8,29.59,East,90,9.6,13.8,92,0.04,RA,,0.07,WeatherDisplay:10.37,2013-04-12 09:15:00,
2013-04-12 05:20:00,51.1,48.8,29.59,ESE,112,9.0,9.0,92,0.05,RA,,0.08,WeatherDisplay:10.37,2013-04-12 09:20:00,
2013-04-12 05:25:00,51.1,48.8,29.59,ESE,112,12.0,13.8,92,0.05,RA,,0.09,WeatherDisplay:10.37,2013-04-12 09:25:00,
2013-04-12 05:31:00,51.1,48.8,29.59,ESE,112,11.4,15.0,92,0.07,RA,,0.10,WeatherDisplay:10.37,2013-04-12 09:31:00,
2013-04-12 05:36:00,50.9,48.7,29.60,SE,135,10.5,12.7,92,0.08,RA,,0.11,WeatherDisplay:10.37,2013-04-12 09:36:00,
2013-04-12 05:42:00,50.9,48.7,29.59,SSE,158,12.0,13.8,92,0.09,RA,,0.12,WeatherDisplay:10.37,2013-04-12 09:42:00,
2013-04-12 05:47:00,50.7,48.5,29.59,SE,135,12.0,16.1,92,0.10,RA,,0.13,WeatherDisplay:10.37,2013-04-12 09:47:00,
2013-04-12 05:52:00,50.7,48.5,29.61,SSE,158,10.5,13.8,92,0.11,RA,,0.14,WeatherDisplay:10.37,2013-04-12 09:52:00,
2013-04-12 05:57:00,50.7,48.5,29.61,SSE,158,12.0,12.7,92,0.11,RA,,0.16,WeatherDisplay:10.37,2013-04-12 09:57:00,
2013-04-12 06:02:00,50.7,48.5,29.63,SSW,202,12.0,12.0,92,0.12,RA,,0.19,WeatherDisplay:10.37,2013-04-12 10:02:00,
2013-04-12 06:07:00,50.7,48.5,29.64,ESE,112,9.6,12.7,92,0.14,RA,,0.20,WeatherDisplay:10.37,2013-04-12 10:07:00,
2013-04-12 06:13:00,50.7,48.5,29.63,SSE,158,9.6,11.5,92,0.14,RA,,0.21,WeatherDisplay:10.37,2013-04-12 10:13:00,
2013-04-12 06:18:00,50.7,48.5,29.63,ESE,112,7.6,9.2,92,0.15,RA,,0.23,WeatherDisplay:10.37,2013-04-12 10:18:00,
2013-04-12 06:23:00,50.7,48.5,29.63,SE,135,14.5,14.5,92,0.17,RA,,0.24,WeatherDisplay:10.37,2013-04-12 10:23:00,
2013-04-12 06:28:00,50.7,48.5,29.63,SE,135,7.6,7.6,92,0.16,RA,,0.25,WeatherDisplay:10.37,2013-04-12 10:28:00,
2013-04-12 06:33:00,50.7,48.5,29.63,SSE,158,9.0,11.5,92,0.16,RA,,0.27,WeatherDisplay:10.37,2013-04-12 10:33:00,
2013-04-12 06:39:00,50.7,48.5,29.63,South,180,10.5,12.7,92,0.17,RA,,0.28,WeatherDisplay:10.37,2013-04-12 10:39:00,
2013-04-12 06:44:00,50.7,48.5,29.63,SE,135,7.3,13.8,92,0.18,RA,,0.30,WeatherDisplay:10.37,2013-04-12 10:44:00,
2013-04-12 06:49:00,50.7,48.5,29.63,SE,135,11.4,12.7,92,0.19,RA,,0.31,WeatherDisplay:10.37,2013-04-12 10:49:00,
2013-04-12 06:54:00,50.7,48.5,29.63,ESE,112,6.1,15.0,92,0.18,RA,,0.33,WeatherDisplay:10.37,2013-04-12 10:54:00,
2013-04-12 06:59:00,50.9,48.7,29.63,ESE,112,6.1,9.2,92,0.17,RA,,0.34,WeatherDisplay:10.37,2013-04-12 10:59:00,
2013-04-12 07:04:00,51.1,48.8,29.63,ESE,112,6.4,8.1,92,0.16,RA,,0.35,WeatherDisplay:10.37,2013-04-12 11:04:00,
2013-04-12 07:09:00,51.1,48.8,29.63,SE,135,10.2,10.2,92,0.17,RA,,0.37,WeatherDisplay:10.37,2013-04-12 11:09:00,
2013-04-12 07:14:00,51.3,49.0,29.63,East,90,5.8,5.8,92,0.16,RA,,0.37,WeatherDisplay:10.37,2013-04-12 11:14:00,
2013-04-12 07:20:00,51.1,48.8,29.63,ESE,118,7.0,12.0,92,0.14,RA,RA,0.37,WeatherDisplay:10.37,2013-04-12 11:20:00,
2013-04-12 07:25:00,51.1,48.8,29.62,SE,135,10.2,10.2,92,0.14,RA,,0.39,WeatherDisplay:10.37,2013-04-12 11:25:00,
2013-04-12 07:30:00,51.1,48.8,29.63,ESE,112,10.5,12.7,92,0.14,RA,,0.39,WeatherDisplay:10.37,2013-04-12 11:30:00,
2013-04-12 07:36:00,50.9,48.7,29.62,SE,135,5.2,9.2,92,0.12,RA,,0.39,WeatherDisplay:10.37,2013-04-12 11:36:00,
2013-04-12 07:41:00,50.9,48.7,29.62,SE,135,7.6,7.6,92,0.10,,,0.41,WeatherDisplay:10.37,2013-04-12 11:41:00,
2013-04-12 07:47:00,50.7,48.5,29.61,SE,135,7.0,12.7,92,0.10,RA,,0.41,WeatherDisplay:10.37,2013-04-12 11:47:00,
2013-04-12 07:52:00,50.5,48.3,29.61,SE,135,7.0,12.7,92,0.09,RA,,0.41,WeatherDisplay:10.37,2013-04-12 11:52:00,
2013-04-12 07:58:00,50.4,48.1,29.62,ESE,112,10.8,10.8,92,0.08,RA,,0.41,WeatherDisplay:10.37,2013-04-12 11:58:00,
2013-04-12 08:04:00,50.2,47.9,29.62,SE,135,11.4,11.5,92,0.07,CLR,,0.41,WeatherDisplay:10.37,2013-04-12 12:04:00,
2013-04-12 08:09:00,50.2,47.9,29.62,SE,135,10.8,13.8,92,0.05,CLR,,0.41,WeatherDisplay:10.37,2013-04-12 12:09:00,
2013-04-12 08:14:00,50.0,47.8,29.62,ESE,112,6.7,12.7,92,0.04,CLR,,0.41,WeatherDisplay:10.37,2013-04-12 12:14:00,
2013-04-12 08:19:00,50.0,47.8,29.61,SE,135,9.9,11.5,92,0.05,RA,,0.43,WeatherDisplay:10.37,2013-04-12 12:19:00,
2013-04-12 08:24:00,50.0,47.8,29.60,SSE,158,9.0,9.2,92,0.04,RA,,0.43,WeatherDisplay:10.37,2013-04-12 12:24:00,
2013-04-12 08:29:00,50.2,47.9,29.60,SE,135,9.6,9.6,92,0.04,CLR,,0.43,WeatherDisplay:10.37,2013-04-12 12:29:00,
2013-04-12 08:34:00,50.2,47.9,29.60,ESE,112,9.9,11.5,92,0.03,CLR,,0.43,WeatherDisplay:10.37,2013-04-12 12:34:00,
2013-04-12 08:39:00,50.2,47.9,29.60,SE,135,8.4,10.4,92,0.03,CLR,,0.44,WeatherDisplay:10.37,2013-04-12 12:39:00,
2013-04-12 08:45:00,50.5,48.3,29.60,SE,135,8.1,12.7,92,0.03,RA,,0.44,WeatherDisplay:10.37,2013-04-12 12:45:00,
2013-04-12 08:50:00,50.5,48.6,29.61,SE,135,7.0,10.4,93,0.03,,,0.44,WeatherDisplay:10.37,2013-04-12 12:50:00,
2013-04-12 08:56:00,50.5,48.6,29.61,ESE,112,9.0,9.0,93,0.02,CLR,,0.44,WeatherDisplay:10.37,2013-04-12 12:56:00,
2013-04-12 09:02:00,50.7,48.8,29.61,SE,135,7.3,9.2,93,0.02,CLR,,0.44,WeatherDisplay:10.37,2013-04-12 13:02:00,
2013-04-12 09:07:00,50.9,48.9,29.61,SE,135,12.3,12.3,93,0.02,CLR,,0.44,WeatherDisplay:10.37,2013-04-12 13:07:00,
2013-04-12 09:12:00,50.7,48.5,29.61,SSE,158,9.9,11.5,92,0.02,CLR,,0.44,WeatherDisplay:10.37,2013-04-12 13:12:00,
2013-04-12 09:17:00,50.7,48.5,29.60,SSE,158,9.9,12.7,92,0.01,CLR,,0.44,WeatherDisplay:10.37,2013-04-12 13:17:00,
2013-04-12 09:22:00,50.7,48.5,29.61,South,180,6.4,10.4,92,0.02,RA,,0.44,WeatherDisplay:10.37,2013-04-12 13:22:00,
2013-04-12 09:27:00,50.7,48.5,29.61,ESE,112,6.1,9.2,92,0.02,RA,,0.46,WeatherDisplay:10.37,2013-04-12 13:27:00,
2013-04-12 09:33:00,50.9,48.7,29.61,SSE,158,9.0,9.0,92,0.03,RA,,0.46,WeatherDisplay:10.37,2013-04-12 13:33:00,
2013-04-12 09:38:00,51.1,48.8,29.62,SSE,158,10.2,10.2,92,0.03,,,0.46,WeatherDisplay:10.37,2013-04-12 13:38:00,
2013-04-12 09:43:00,51.3,49.0,29.62,SSE,158,8.4,12.7,92,0.02,CLR,,0.46,WeatherDisplay:10.37,2013-04-12 13:43:00,
2013-04-12 09:48:00,51.4,49.2,29.62,SSW,202,8.1,10.4,92,0.02,CLR,,0.46,WeatherDisplay:10.37,2013-04-12 13:48:00,
2013-04-12 09:53:00,51.6,49.4,29.62,SE,135,9.0,11.5,92,0.02,CLR,,0.46,WeatherDisplay:10.37,2013-04-12 13:53:00,
2013-04-12 09:58:00,52.2,50.2,29.63,SSE,158,14.2,14.2,93,0.02,CLR,,0.46,WeatherDisplay:10.37,2013-04-12 13:58:00,
2013-04-12 10:03:00,52.5,50.6,29.63,SE,135,6.7,12.7,93,0.02,CLR,,0.46,WeatherDisplay:10.37,2013-04-12 14:03:00,
2013-04-12 10:08:00,52.7,51.0,29.63,SSE,158,12.0,12.0,94,0.02,CLR,,0.46,WeatherDisplay:10.37,2013-04-12 14:08:00,
2013-04-12 10:13:00,52.9,50.9,29.63,SSE,158,8.1,8.1,93,0.02,CLR,,0.46,WeatherDisplay:10.37,2013-04-12 14:13:00,
2013-04-12 10:18:00,52.9,50.9,29.63,SE,135,9.9,9.9,93,0.02,CLR,,0.46,WeatherDisplay:10.37,2013-04-12 14:18:00,
2013-04-12 10:23:00,52.5,50.3,29.63,SE,135,6.1,6.1,92,0.01,CLR,,0.46,WeatherDisplay:10.37,2013-04-12 14:23:00,
2013-04-12 10:28:00,52.5,50.3,29.63,SSW,202,5.2,8.1,92,0.00,CLR,,0.46,WeatherDisplay:10.37,2013-04-12 14:28:00,
2013-04-12 10:33:00,52.3,50.1,29.63,SE,135,6.7,11.5,92,0.01,RA,,0.46,WeatherDisplay:10.37,2013-04-12 14:33:00,
2013-04-12 10:38:00,52.5,50.3,29.63,SE,135,2.4,9.2,92,0.01,RA,,0.46,WeatherDisplay:10.37,2013-04-12 14:38:00,
2013-04-12 10:43:00,52.7,50.4,29.63,SE,135,2.8,2.8,92,0.01,,,0.46,WeatherDisplay:10.37,2013-04-12 14:43:00,
2013-04-12 10:48:00,53.2,51.3,29.63,South,180,4.3,6.9,93,0.01,CLR,,0.46,WeatherDisplay:10.37,2013-04-12 14:48:00,
2013-04-12 10:53:00,54.0,52.0,29.63,ESE,112,9.0,9.2,93,0.01,CLR,,0.46,WeatherDisplay:10.37,2013-04-12 14:53:00,
2013-04-12 10:58:00,54.7,52.7,29.63,SE,135,11.1,11.1,93,0.01,CLR,,0.46,WeatherDisplay:10.37,2013-04-12 14:58:00,
2013-04-12 11:03:00,55.2,53.2,29.63,SSE,158,10.8,11.5,93,0.01,CLR,,0.46,WeatherDisplay:10.37,2013-04-12 15:03:00,
2013-04-12 11:08:00,55.8,53.8,29.63,SSW,202,9.9,9.9,93,0.01,CLR,,0.46,WeatherDisplay:10.37,2013-04-12 15:08:00,
2013-04-12 11:13:00,56.3,54.3,29.63,SSE,158,11.7,11.7,93,0.01,CLR,,0.46,WeatherDisplay:10.37,2013-04-12 15:13:00,
2013-04-12 11:18:00,57.2,55.2,29.63,SE,135,11.1,12.7,93,0.01,CLR,,0.46,WeatherDisplay:10.37,2013-04-12 15:18:00,
2013-04-12 11:23:00,58.3,56.0,29.62,SSE,158,3.7,8.1,92,0.01,CLR,,0.46,WeatherDisplay:10.37,2013-04-12 15:23:00,
2013-04-12 11:28:00,59.2,57.2,29.62,SSE,158,8.4,8.4,93,0.01,CLR,,0.46,WeatherDisplay:10.37,2013-04-12 15:28:00,
2013-04-12 11:33:00,59.9,57.6,29.62,SSE,158,15.1,16.1,92,0.00,CLR,,0.46,WeatherDisplay:10.37,2013-04-12 15:33:00,
2013-04-12 11:38:00,60.4,57.5,29.62,SE,135,8.1,16.1,90,0.00,CLR,,0.46,WeatherDisplay:10.37,2013-04-12 15:38:00,
2013-04-12 11:43:00,60.8,57.5,29.62,SSW,202,7.3,13.8,89,0.00,CLR,,0.46,WeatherDisplay:10.37,2013-04-12 15:43:00,
2013-04-12 11:48:00,61.2,57.3,29.62,SSE,158,6.7,6.9,87,0.00,CLR,,0.46,WeatherDisplay:10.37,2013-04-12 15:48:00,
2013-04-12 11:53:00,61.5,57.3,29.62,South,180,5.8,11.5,86,0.00,CLR,,0.46,WeatherDisplay:10.37,2013-04-12 15:53:00,
2013-04-12 11:58:00,61.7,57.1,29.62,SW,225,5.8,6.9,85,0.00,CLR,,0.46,WeatherDisplay:10.37,2013-04-12 15:58:00,
2013-04-12 12:03:00,61.5,57.0,29.62,SSE,158,3.7,5.8,85,0.00,CLR,,0.46,WeatherDisplay:10.37,2013-04-12 16:03:00,
2013-04-12 12:08:00,61.2,56.3,29.62,SW,225,4.9,6.9,84,0.00,CLR,,0.46,WeatherDisplay:10.37,2013-04-12 16:08:00,
2013-04-12 12:13:00,60.8,55.9,29.62,SSE,158,4.3,6.9,84,0.00,CLR,,0.46,WeatherDisplay:10.37,2013-04-12 16:13:00,
2013-04-12 12:18:00,60.4,55.9,29.63,SW,225,2.8,2.8,85,0.01,RA,,0.49,WeatherDisplay:10.37,2013-04-12 16:18:00,
2013-04-12 12:23:00,60.1,55.9,29.63,SW,225,3.1,4.6,86,0.04,RA,,0.51,WeatherDisplay:10.37,2013-04-12 16:23:00,
2013-04-12 12:28:00,59.9,55.7,29.63,SSW,202,2.5,3.5,86,0.04,RA,,0.51,WeatherDisplay:10.37,2013-04-12 16:28:00,
2013-04-12 12:33:00,59.9,56.0,29.63,SSW,202,4.0,4.6,87,0.06,RA,,0.54,WeatherDisplay:10.37,2013-04-12 16:33:00,
2013-04-12 12:38:00,59.7,55.8,29.63,WSW,248,3.1,3.1,87,0.09,RA,,0.56,WeatherDisplay:10.37,2013-04-12 16:38:00,
2013-04-12 12:43:00,59.9,56.3,29.63,WSW,248,4.3,4.3,88,0.09,RA,,0.56,WeatherDisplay:10.37,2013-04-12 16:43:00,
2013-04-12 12:48:00,60.3,56.7,29.63,SW,225,8.7,8.7,88,0.09,CLR,,0.57,WeatherDisplay:10.37,2013-04-12 16:48:00,
2013-04-12 12:53:00,61.2,57.6,29.62,SW,225,2.4,3.5,88,0.10,RA,,0.57,WeatherDisplay:10.37,2013-04-12 16:53:00,
2013-04-12 12:58:00,62.2,58.3,29.61,WSW,248,6.1,6.9,87,0.10,RA,,0.57,WeatherDisplay:10.37,2013-04-12 16:58:00,
2013-04-12 13:03:00,63.0,58.4,29.62,WSW,248,9.6,9.6,85,0.10,CLR,,0.57,WeatherDisplay:10.37,2013-04-12 17:03:00,
2013-04-12 13:08:00,63.3,57.4,29.62,West,270,5.2,10.4,81,0.10,CLR,,0.57,WeatherDisplay:10.37,2013-04-12 17:08:00,
2013-04-12 13:13:00,63.5,57.2,29.62,WSW,248,2.1,3.5,80,0.10,CLR,,0.57,WeatherDisplay:10.37,2013-04-12 17:13:00,
2013-04-12 13:18:00,64.0,57.4,29.61,WSW,248,4.6,9.2,79,0.09,CLR,,0.57,WeatherDisplay:10.37,2013-04-12 17:18:00,
2013-04-12 13:23:00,64.8,57.7,29.61,West,270,5.5,9.2,78,0.06,CLR,,0.57,WeatherDisplay:10.37,2013-04-12 17:23:00,
2013-04-12 13:29:00,64.8,55.1,29.61,WSW,248,8.4,9.2,71,0.06,CLR,,0.57,WeatherDisplay:10.37,2013-04-12 17:29:00,
2013-04-12 13:34:00,63.9,55.0,29.61,WSW,248,5.8,10.4,73,0.03,CLR,,0.57,WeatherDisplay:10.37,2013-04-12 17:34:00,
2013-04-12 13:39:00,64.4,55.6,29.61,West,270,16.9,16.9,73,0.01,CLR,,0.57,WeatherDisplay:10.37,2013-04-12 17:39:00,
2013-04-12 13:44:00,64.4,54.4,29.61,West,270,13.3,13.3,70,0.01,CLR,,0.57,WeatherDisplay:10.37,2013-04-12 17:44:00,
2013-04-12 13:49:00,64.0,54.4,29.62,WSW,248,9.9,11.5,71,0.00,CLR,,0.57,WeatherDisplay:10.37,2013-04-12 17:49:00,
2013-04-12 13:54:00,63.9,53.9,29.62,SW,225,6.4,9.2,70,0.00,CLR,,0.57,WeatherDisplay:10.37,2013-04-12 17:54:00,
2013-04-12 14:00:00,63.7,54.1,29.62,West,270,10.5,13.8,71,0.00,CLR,,0.57,WeatherDisplay:10.37,2013-04-12 18:00:00,
2013-04-12 14:05:00,63.1,53.2,29.62,West,270,12.6,12.7,70,0.00,CLR,,0.57,WeatherDisplay:10.37,2013-04-12 18:05:00,
2013-04-12 14:11:00,63.3,53.4,29.62,WSW,248,8.4,10.4,70,0.00,CLR,,0.57,WeatherDisplay:10.37,2013-04-12 18:11:00,
2013-04-12 14:18:00,63.3,53.8,29.62,West,270,5.2,12.7,71,0.00,CLR,,0.57,WeatherDisplay:10.37,2013-04-12 18:18:00,
2013-04-12 14:24:00,62.6,53.1,29.62,WNW,292,6.1,10.4,71,0.00,CLR,,0.57,WeatherDisplay:10.37,2013-04-12 18:24:00,
2013-04-12 14:29:00,61.9,52.8,29.63,West,270,13.3,13.3,72,0.00,CLR,,0.57,WeatherDisplay:10.37,2013-04-12 18:29:00,
2013-04-12 15:26:00,64.0,50.8,29.62,WSW,248,9.9,9.9,62,0.00,CLR,,0.57,WeatherDisplay:10.37,2013-04-12 19:26:00,
2013-04-12 15:27:00,64.0,50.3,29.62,West,270,8.4,10.4,61,0.00,CLR,,0.57,WeatherDisplay:10.37,2013-04-12 19:27:00,
2013-04-12 15:28:00,63.9,50.6,29.62,WSW,248,3.7,10.4,62,0.00,CLR,,0.57,WeatherDisplay:10.37,2013-04-12 19:28:00,
2013-04-12 15:31:00,63.5,50.2,29.61,NW,315,6.7,15.0,62,0.00,CLR,,0.57,WeatherDisplay:10.37,2013-04-12 19:31:00,
2013-04-12 15:37:00,62.6,49.8,29.61,WNW,292,4.9,9.2,63,0.00,CLR,,0.57,WeatherDisplay:10.37,2013-04-12 19:37:00,
2013-04-12 15:42:00,61.5,50.5,29.61,WNW,292,11.1,12.7,67,0.00,CLR,,0.57,WeatherDisplay:10.37,2013-04-12 19:42:00,
2013-04-12 15:47:00,61.3,49.9,29.62,West,270,6.4,10.4,66,0.00,CLR,,0.57,WeatherDisplay:10.37,2013-04-12 19:47:00,
2013-04-12 15:53:00,62.2,50.3,29.61,SSW,202,13.0,13.0,65,0.00,CLR,,0.57,WeatherDisplay:10.37,2013-04-12 19:53:00,
2013-04-12 15:58:00,63.1,51.2,29.61,WSW,248,5.2,5.8,65,0.00,CLR,,0.57,WeatherDisplay:10.37,2013-04-12 19:58:00,
2013-04-12 16:03:00,63.0,49.3,29.61,West,270,6.1,10.4,61,0.00,CLR,,0.57,WeatherDisplay:10.37,2013-04-12 20:03:00,
2013-04-12 16:08:00,62.2,49.5,29.61,WSW,248,7.0,7.0,63,0.00,CLR,,0.57,WeatherDisplay:10.37,2013-04-12 20:08:00,
2013-04-12 16:13:00,62.4,49.2,29.62,West,270,8.7,8.7,62,0.00,CLR,,0.57,WeatherDisplay:10.37,2013-04-12 20:13:00,
2013-04-12 16:18:00,63.1,48.1,29.62,West,270,5.8,11.5,58,0.00,CLR,,0.57,WeatherDisplay:10.37,2013-04-12 20:18:00,
2013-04-12 16:23:00,64.6,49.0,29.62,NW,315,9.9,9.9,57,0.00,CLR,,0.57,WeatherDisplay:10.37,2013-04-12 20:23:00,
2013-04-12 16:28:00,64.8,48.7,29.61,SW,225,4.3,6.9,56,0.00,CLR,,0.57,WeatherDisplay:10.37,2013-04-12 20:28:00,
2013-04-12 16:33:00,64.0,47.5,29.62,ESE,112,2.4,3.5,55,0.00,CLR,,0.57,WeatherDisplay:10.37,2013-04-12 20:33:00,
2013-04-12 16:38:00,65.3,48.2,29.62,West,270,11.1,11.1,54,0.00,CLR,,0.57,WeatherDisplay:10.37,2013-04-12 20:38:00,
2013-04-12 16:43:00,64.4,45.9,29.62,West,270,6.1,11.5,51,0.00,CLR,,0.57,WeatherDisplay:10.37,2013-04-12 20:43:00,
2013-04-12 16:48:00,63.9,45.9,29.61,West,270,7.3,8.1,52,0.00,CLR,,0.57,WeatherDisplay:10.37,2013-04-12 20:48:00,
2013-04-12 16:53:00,64.6,46.0,29.61,WSW,248,13.0,13.0,51,0.00,CLR,,0.57,WeatherDisplay:10.37,2013-04-12 20:53:00,
2013-04-12 16:58:00,63.9,45.4,29.61,WSW,248,7.3,10.4,51,0.00,CLR,,0.57,WeatherDisplay:10.37,2013-04-12 20:58:00,
2013-04-12 17:03:00,63.7,45.7,29.61,WSW,248,5.2,6.9,52,0.00,CLR,,0.57,WeatherDisplay:10.37,2013-04-12 21:03:00,
2013-04-12 17:08:00,65.3,46.2,29.61,NW,315,7.8,7.8,50,0.00,CLR,,0.57,WeatherDisplay:10.37,2013-04-12 21:08:00,
2013-04-12 17:13:00,64.4,44.3,29.61,West,270,8.1,17.3,48,0.00,CLR,,0.57,WeatherDisplay:10.37,2013-04-12 21:13:00,
2013-04-12 17:18:00,63.0,44.5,29.62,WSW,248,6.4,9.2,51,0.00,CLR,,0.57,WeatherDisplay:10.37,2013-04-12 21:18:00,
2013-04-12 17:23:00,63.0,44.5,29.62,WNW,292,9.9,10.4,51,0.00,CLR,,0.57,WeatherDisplay:10.37,2013-04-12 21:23:00,
2013-04-12 17:28:00,62.2,44.4,29.62,WSW,248,6.1,9.2,52,0.00,CLR,,0.57,WeatherDisplay:10.37,2013-04-12 21:28:00,
2013-04-12 17:33:00,61.9,45.0,29.62,NW,315,9.3,9.3,54,0.00,CLR,,0.57,WeatherDisplay:10.37,2013-04-12 21:33:00,
2013-04-12 17:38:00,63.7,46.7,29.62,West,270,13.6,13.6,54,0.00,CLR,,0.57,WeatherDisplay:10.37,2013-04-12 21:38:00,
2013-04-12 17:43:00,63.5,47.0,29.63,West,270,7.8,7.8,55,0.00,CLR,,0.57,WeatherDisplay:10.37,2013-04-12 21:43:00,
2013-04-12 17:48:00,63.1,46.2,29.63,NW,315,9.3,9.3,54,0.00,CLR,,0.57,WeatherDisplay:10.37,2013-04-12 21:48:00,
2013-04-12 17:53:00,62.6,45.2,29.63,West,270,8.4,9.2,53,0.00,CLR,,0.57,WeatherDisplay:10.37,2013-04-12 21:53:00,
2013-04-12 17:58:00,64.0,47.1,29.63,WSW,248,13.6,13.6,54,0.00,CLR,,0.57,WeatherDisplay:10.37,2013-04-12 21:58:00,
2013-04-12 18:03:00,63.5,45.6,29.63,WSW,248,9.3,10.4,52,0.00,CLR,,0.57,WeatherDisplay:10.37,2013-04-12 22:03:00,
2013-04-12 18:08:00,64.0,47.1,29.64,NNW,338,7.6,7.6,54,0.00,CLR,,0.57,WeatherDisplay:10.37,2013-04-12 22:08:00,
2013-04-12 18:13:00,62.8,45.4,29.64,WNW,292,7.0,13.8,53,0.00,CLR,,0.57,WeatherDisplay:10.37,2013-04-12 22:13:00,
2013-04-12 18:18:00,61.2,45.3,29.64,NW,315,4.6,6.9,56,0.00,CLR,,0.57,WeatherDisplay:10.37,2013-04-12 22:18:00,
2013-04-12 18:23:00,60.6,45.8,29.65,West,270,7.3,7.3,58,0.00,CLR,,0.57,WeatherDisplay:10.37,2013-04-12 22:23:00,
2013-04-12 18:28:00,60.1,44.8,29.65,WNW,292,6.1,11.5,57,0.00,CLR,,0.57,WeatherDisplay:10.37,2013-04-12 22:28:00,
2013-04-12 18:33:00,60.1,45.2,29.66,NNW,338,9.0,9.0,58,0.00,CLR,,0.57,WeatherDisplay:10.37,2013-04-12 22:33:00,
2013-04-12 18:38:00,59.5,44.7,29.66,NW,315,6.1,10.4,58,0.00,CLR,,0.57,WeatherDisplay:10.37,2013-04-12 22:38:00,
2013-04-12 18:43:00,59.2,44.4,29.66,NW,315,7.6,11.5,58,0.00,CLR,,0.57,WeatherDisplay:10.37,2013-04-12 22:43:00,
2013-04-12 18:48:00,58.6,43.9,29.67,WSW,248,8.4,9.2,58,0.00,CLR,,0.57,WeatherDisplay:10.37,2013-04-12 22:48:00,
2013-04-12 18:53:00,58.3,43.6,29.68,NW,315,7.3,7.3,58,0.00,CLR,,0.57,WeatherDisplay:10.37,2013-04-12 22:53:00,
2013-04-12 18:58:00,57.9,42.3,29.69,North,0,4.3,10.4,56,0.00,CLR,,0.57,WeatherDisplay:10.37,2013-04-12 22:58:00,
2013-04-12 19:03:00,57.9,42.3,29.69,NW,315,9.9,12.7,56,0.00,CLR,,0.57,WeatherDisplay:10.37,2013-04-12 23:03:00,
2013-04-12 19:08:00,57.9,42.8,29.69,West,270,5.2,11.5,57,0.00,CLR,,0.57,WeatherDisplay:10.37,2013-04-12 23:08:00,
2013-04-12 19:13:00,57.7,43.1,29.69,NW,315,5.5,6.9,58,0.00,CLR,,0.57,WeatherDisplay:10.37,2013-04-12 23:13:00,
2013-04-12 19:18:00,57.2,43.0,29.69,WNW,292,7.6,8.1,59,0.00,CLR,,0.57,WeatherDisplay:10.37,2013-04-12 23:18:00,
2013-04-12 19:23:00,56.7,42.9,29.68,WSW,248,8.1,10.4,60,0.00,CLR,,0.57,WeatherDisplay:10.37,2013-04-12 23:23:00,
2013-04-12 19:28:00,55.9,42.2,29.68,West,270,7.0,7.0,60,0.00,CLR,,0.57,WeatherDisplay:10.37,2013-04-12 23:28:00,
2013-04-12 19:33:00,55.4,41.3,29.68,West,270,7.0,8.1,59,0.00,CLR,,0.57,WeatherDisplay:10.37,2013-04-12 23:33:00,
2013-04-12 19:38:00,55.0,41.0,29.68,WNW,292,5.2,8.1,59,0.00,CLR,,0.57,WeatherDisplay:10.37,2013-04-12 23:38:00,
2013-04-12 19:43:00,54.7,41.5,29.67,WNW,292,7.8,10.4,61,0.00,CLR,,0.57,WeatherDisplay:10.37,2013-04-12 23:43:00,
2013-04-12 19:48:00,54.3,40.7,29.67,NNW,338,6.4,6.9,60,0.00,CLR,,0.57,WeatherDisplay:10.37,2013-04-12 23:48:00,
2013-04-12 19:53:00,54.0,40.8,29.67,NNW,338,5.2,5.8,61,0.00,CLR,,0.57,WeatherDisplay:10.37,2013-04-12 23:53:00,
2013-04-12 19:58:00,53.6,41.3,29.67,NNW,338,9.9,10.4,63,0.00,CLR,,0.57,WeatherDisplay:10.37,2013-04-12 23:58:00,
2013-04-12 20:03:00,52.7,41.7,29.67,WSW,248,10.5,12.7,66,0.00,CLR,,0.57,WeatherDisplay:10.37,2013-04-13 00:03:00,
2013-04-12 20:08:00,51.4,41.2,29.66,NW,315,13.0,13.8,68,0.00,CLR,,0.57,WeatherDisplay:10.37,2013-04-13 00:08:00,
2013-04-12 20:13:00,50.7,40.9,29.66,NNW,338,8.1,11.5,69,0.00,CLR,,0.57,WeatherDisplay:10.37,2013-04-13 00:13:00,
2013-04-12 20:18:00,49.5,40.1,29.67,WNW,292,10.5,12.7,70,0.00,CLR,,0.57,WeatherDisplay:10.37,2013-04-13 00:18:00,
2013-04-12 20:23:00,48.6,39.9,29.69,NNW,338,19.4,19.4,72,0.00,CLR,,0.57,WeatherDisplay:10.37,2013-04-13 00:23:00,
2013-04-12 20:28:00,47.3,38.7,29.70,West,270,12.0,15.0,72,0.00,CLR,,0.57,WeatherDisplay:10.37,2013-04-13 00:28:00,
2013-04-12 20:33:00,46.8,38.6,29.71,WSW,248,9.0,9.2,73,0.00,CLR,,0.57,WeatherDisplay:10.37,2013-04-13 00:33:00,
2013-04-12 20:38:00,46.4,38.6,29.71,West,270,7.8,8.1,74,0.00,CLR,,0.57,WeatherDisplay:10.37,2013-04-13 00:38:00,
2013-04-12 20:43:00,46.2,38.4,29.72,West,270,7.0,11.5,74,0.00,CLR,,0.57,WeatherDisplay:10.37,2013-04-13 00:43:00,
2013-04-12 20:48:00,46.0,38.6,29.73,WNW,292,7.3,8.1,75,0.00,CLR,,0.57,WeatherDisplay:10.37,2013-04-13 00:48:00,
2013-04-12 20:53:00,45.7,37.9,29.74,NW,315,8.4,8.4,74,0.00,CLR,,0.57,WeatherDisplay:10.37,2013-04-13 00:53:00,
2013-04-12 20:58:00,45.5,37.3,29.74,NNW,338,2.8,11.5,73,0.00,CLR,,0.57,WeatherDisplay:10.37,2013-04-13 00:58:00,
2013-04-12 21:03:00,45.3,37.2,29.74,NW,315,6.1,12.7,73,0.00,CLR,,0.57,WeatherDisplay:10.37,2013-04-13 01:03:00,
2013-04-12 21:08:00,45.0,36.5,29.74,NW,315,2.1,8.1,72,0.00,CLR,,0.57,WeatherDisplay:10.37,2013-04-13 01:08:00,
2013-04-12 21:14:00,44.6,36.1,29.75,NNW,338,5.5,9.2,72,0.00,CLR,,0.57,WeatherDisplay:10.37,2013-04-13 01:14:00,
2013-04-12 21:19:00,44.4,36.0,29.75,West,270,6.1,6.1,72,0.00,CLR,,0.57,WeatherDisplay:10.37,2013-04-13 01:19:00,
2013-04-12 21:24:00,44.2,35.8,29.75,WNW,292,14.5,14.5,72,0.00,CLR,,0.57,WeatherDisplay:10.37,2013-04-13 01:24:00,
2013-04-12 21:29:00,44.1,35.3,29.75,NW,315,10.2,11.5,71,0.00,CLR,,0.57,WeatherDisplay:10.37,2013-04-13 01:29:00,
2013-04-12 21:34:00,43.9,35.1,29.75,NW,315,9.0,9.2,71,0.00,CLR,,0.57,WeatherDisplay:10.37,2013-04-13 01:34:00,
2013-04-12 21:39:00,43.9,35.1,29.76,NW,315,4.9,4.9,71,0.00,CLR,,0.57,WeatherDisplay:10.37,2013-04-13 01:39:00,
2013-04-12 21:44:00,43.7,34.6,29.76,NW,315,4.0,6.9,70,0.00,CLR,,0.57,WeatherDisplay:10.37,2013-04-13 01:44:00,
2013-04-12 21:49:00,43.5,34.4,29.76,NW,315,2.4,4.6,70,0.00,CLR,,0.57,WeatherDisplay:10.37,2013-04-13 01:49:00,
2013-04-12 21:54:00,43.5,34.4,29.77,NW,315,2.5,9.2,70,0.00,CLR,,0.57,WeatherDisplay:10.37,2013-04-13 01:54:00,
2013-04-12 21:59:00,43.5,34.4,29.77,NW,315,4.0,4.6,70,0.00,CLR,,0.57,WeatherDisplay:10.37,2013-04-13 01:59:00,
2013-04-12 22:04:00,43.5,34.4,29.76,NW,315,9.0,9.0,70,0.00,CLR,,0.57,WeatherDisplay:10.37,2013-04-13 02:04:00,
2013-04-12 22:09:00,43.5,34.4,29.77,WSW,248,5.2,5.2,70,0.00,CLR,,0.57,WeatherDisplay:10.37,2013-04-13 02:09:00,
2013-04-12 22:14:00,43.3,34.2,29.76,West,270,7.8,7.8,70,0.00,CLR,,0.57,WeatherDisplay:10.37,2013-04-13 02:14:00,
2013-04-12 22:19:00,43.3,34.2,29.76,North,0,6.1,6.1,70,0.00,CLR,,0.57,WeatherDisplay:10.37,2013-04-13 02:19:00,
2013-04-12 22:24:00,43.2,34.0,29.77,NNW,338,2.1,2.3,70,0.00,CLR,,0.57,WeatherDisplay:10.37,2013-04-13 02:24:00,
2013-04-12 22:29:00,43.0,33.5,29.77,West,270,7.6,7.6,69,0.00,CLR,,0.57,WeatherDisplay:10.37,2013-04-13 02:29:00,
2013-04-12 22:34:00,42.8,33.3,29.76,NNW,338,5.5,5.8,69,0.00,CLR,,0.57,WeatherDisplay:10.37,2013-04-13 02:34:00,
2013-04-12 22:39:00,42.8,33.3,29.76,NW,315,9.0,9.0,69,0.00,CLR,,0.57,WeatherDisplay:10.37,2013-04-13 02:39:00,
2013-04-12 22:44:00,42.8,33.7,29.77,WNW,292,6.1,6.1,70,0.00,CLR,,0.57,WeatherDisplay:10.37,2013-04-13 02:44:00,
2013-04-12 22:49:00,42.6,33.5,29.77,WNW,292,4.3,5.8,70,0.00,CLR,,0.57,WeatherDisplay:10.37,2013-04-13 02:49:00,
2013-04-12 22:54:00,42.6,33.9,29.76,NNW,338,2.8,5.8,71,0.00,CLR,,0.57,WeatherDisplay:10.37,2013-04-13 02:54:00,
2013-04-12 22:59:00,42.4,33.7,29.76,NW,315,3.1,3.5,71,0.00,CLR,,0.57,WeatherDisplay:10.37,2013-04-13 02:59:00,
2013-04-12 23:04:00,42.4,33.7,29.76,NW,315,3.1,4.6,71,0.00,CLR,,0.57,WeatherDisplay:10.37,2013-04-13 03:04:00,
2013-04-12 23:09:00,42.4,33.3,29.76,NNW,338,2.8,6.9,70,0.00,CLR,,0.57,WeatherDisplay:10.37,2013-04-13 03:09:00,
2013-04-12 23:14:00,42.4,33.3,29.75,NW,315,2.4,6.9,70,0.00,CLR,,0.57,WeatherDisplay:10.37,2013-04-13 03:14:00,
2013-04-12 23:19:00,42.3,33.2,29.75,WNW,292,9.6,9.6,70,0.00,CLR,,0.57,WeatherDisplay:10.37,2013-04-13 03:19:00,
2013-04-12 23:24:00,42.1,33.0,29.75,NW,315,8.1,8.1,70,0.00,CLR,,0.57,WeatherDisplay:10.37,2013-04-13 03:24:00,
2013-04-12 23:29:00,42.1,33.4,29.76,West,270,3.1,8.1,71,0.00,CLR,,0.57,WeatherDisplay:10.37,2013-04-13 03:29:00,
2013-04-12 23:34:00,42.1,33.4,29.76,NNW,338,2.5,3.5,71,0.00,CLR,,0.57,WeatherDisplay:10.37,2013-04-13 03:34:00,
2013-04-12 23:39:00,42.1,33.4,29.76,WNW,292,2.5,5.8,71,0.00,CLR,,0.57,WeatherDisplay:10.37,2013-04-13 03:39:00,
2013-04-12 23:44:00,42.1,33.4,29.76,WNW,292,4.6,8.1,71,0.00,CLR,,0.57,WeatherDisplay:10.37,2013-04-13 03:44:00,
2013-04-12 23:49:00,42.1,33.4,29.75,WSW,248,5.2,8.1,71,0.00,CLR,,0.57,WeatherDisplay:10.37,2013-04-13 03:49:00,
2013-04-12 23:54:00,41.9,33.2,29.76,West,270,3.1,3.5,71,0.00,CLR,,0.57,WeatherDisplay:10.37,2013-04-13 03:54:00,